Location: Newark
(7.0858°N, 171.3717°E)
Time: 19:11:20
(UTC+00:00)

Explorer 7 - Visible Passes

Search period start: 19 June 2021 00:00
Search period end: 29 June 2021 00:00
Orbit: 484 x 677 km, 50.3° (Epoch: 18 June)

Date Brightness Start Highest point End Pass type
(mag) Time Alt. Az. Time Alt. Az. Time Alt. Az.
19 Jun 8.6 07:32:27 10° WSW 07:36:58 43° NW 07:41:36 10° NNE visible
19 Jun 7.5 17:52:08 10° NNW 17:56:09 57° NE 17:59:57 10° SE visible
20 Jun 9.9 07:37:34 10° WSW 07:41:20 23° NW 07:45:11 10° N visible
20 Jun 6.7 17:56:25 10° NW 18:00:27 61° SW 18:04:16 10° SSE visible
21 Jun 10.5 07:43:46 10° WNW 07:45:47 12° NW 07:47:49 10° NNW visible
21 Jun 9.8 16:21:42 10° N 16:24:20 16° NE 16:26:52 10° E visible
22 Jun 8.5 16:24:58 10° NNW 16:28:45 32° NE 16:32:20 10° ESE visible
23 Jun 7.2 16:33:48 56° ESE 16:33:48 56° ESE 16:37:03 10° SE visible
